Regional Weather Roundup
Issued by NWS Albany, NY

Home | Current Version | Previous Version | Text Only | Print | Product List | Glossary On
Versions: 1 2 3 4 5 6 7 8 9 10 11 12 13 14 15 16 17 18 19 20 21 22 23 24 25 26 27 28 29 30 31 32 33 34 35 36 37 38 39 40 41 42 43 44 45 46 47 48 49 50
000
ASUS41 KALY 080810
RWRALY

NEW YORK STATE HOURLY WEATHER ROUNDUP
NATIONAL WEATHER SERVICE ALBANY NY
300 AM EST MON FEB 08 2016

NOTE: "FAIR" INDICATES FEW OR NO CLOUDS BELOW 12,000 FEET WITH NO
SIGNIFICANT WEATHER AND/OR NO OBSTRUCTIONS TO VISIBILITY.

NYZ032-033-038>043-046>054-057>066-NYZ062>081-080900-
EAST


CITY           SKY/WX    TMP DP  RH WIND       PRES   REMARKS
ALBANY         MOCLDY    27  20  75 N3        29.92F
GLENS FALLS    CLOUDY    23  17  78 NE6       29.95F WCI  16
POUGHKEEPSIE   MOCLDY    33  23  66 N7        29.85F WCI  27
MONTGOMERY     MOCLDY    33  23  66 NE13      29.83F WCI  24
WHITE PLAINS   CLOUDY    35  26  69 NE13      29.77F WCI  26
ISLIP          CLOUDY    37  30  75 NE23G33   29.72F WCI  26
NEW YORK CITY  CLOUDY    38  27  64 NE17      29.77F WCI  28
CENTRAL PARK   MOCLDY    38  24  57 NE13G23   29.79F WCI  30
$$

NYZ005>009-017-018-044>046-055-056-080900-
CENTRAL


CITY           SKY/WX    TMP DP  RH WIND       PRES   REMARKS
FULTON         CLOUDY    36  23  59 VRB6      29.85F WCI  31
SYRACUSE       MOCLDY    29  22  75 NE7       29.85F WCI  22
ROME           CLEAR     28  21  75 SE7       29.90F WCI  21
ELMIRA         CLEAR     22  20  92 CALM      29.81F
BINGHAMTON     CLEAR     28  18  66 NE6       29.79F WCI  22
MONTICELLO     CLOUDY    30  21  69 E9        29.81F WCI  22
$$

NYZ026>034-041>043-080900-
NORTH


CITY           SKY/WX    TMP DP  RH WIND       PRES   REMARKS
WATERTOWN      CLOUDY    25  18  74 NE8       29.88F WCI  16
FORT DRUM      NOT AVBL
MASSENA        CLOUDY    18   6  59 E16G23    30.00F WCI   3
SARANAC LAKE   CLOUDY    11   9  92 CALM      29.86F
PLATTSBURGH    PTCLDY    16   6  65 NW3       30.03F
$$

NYZ001>004-010>016-019>021-080900-
WEST


CITY           SKY/WX    TMP DP  RH WIND       PRES   REMARKS
NIAGARA FALLS  CLOUDY    42  26  53 S6        29.74F
BUFFALO        CLOUDY    40  25  55 SE6       29.74F
DUNKIRK        CLOUDY    42  26  53 S14       29.73F
JAMESTOWN      CLOUDY    36  21  55 S6        29.72F WCI  31
WELLSVILLE     CLOUDY    31  22  69 SE5       29.76F WCI  26
ROCHESTER      CLOUDY    37  26  64 SE6       29.79F WCI  32
PENN YAN       CLOUDY    30  26  85 S3        29.80F
$$

             KEY
       WCI = WIND CHILL INDEX
       VSB = VISIBILITY
       HX  = HEAT INDEX
$$



USA.gov is the U.S. government's official web portal to all federal, state and local government web resources and services.